Torna al catalogo

NOAA 16 DEB

AttivoSSO
NORAD 42386·DEBRIS·🇺🇸 United States

Lanciato Sep 21, 2000 da Vandenberg Space Force Base

Loading…

Prossimi Passaggi (prossime 24 ore)

TLE

AggiornatoSource: Space-Track

Epoca: Sep 13, 2026, 12:19 UTC

1 42386U 00055SE  26256.51376469  .00002936  00000-0  10171-2 0  9997
2 42386  98.6881 351.3721 0018318 229.3604 130.5990 14.36326351548024

Traccia NOAA 16 DEB in tempo reale con AllMySat

Download on the App Store